Airfield :
LOGIN :

Register | Disclaimer

   EN    FR    IT 

 










Legend :    VFR   Marginal VFR   IFR   Intensive IFR   Very Intensive IFR
Visi :
Ceiling :
>= 8 km
>= 3000ft
5 to 8 km
1000 to 3000 ft
1500m to 5 km
500 to 1000 ft
800 to 1500m
200 to 500 ft
< 800m
< 200 ft
Symbols :   Thunderstorms  Fog  Heavy snow  Heavy precipitations  Wind > 20 kt
SIGMETs :     Misc.  Thunderstorms  Icing  Turbulence  Mountain Waves  Volcanic Ashes






- Airport Elevation : 47 ft
- IATA code : BDS


LIBR - Casale Arpt. Brindisi

CURRENT METAR :
  • 260420Z VRB02KT CAVOK 13/12 Q1018

EXPIRED METARs :
  • 260350Z 30002KT CAVOK 13/12 Q1019
  • 260320Z 27002KT CAVOK 13/12 Q1019
  • 260250Z 27003KT CAVOK 13/12 Q1019
  • 260220Z 27003KT CAVOK 13/12 Q1019
  • 260150Z 26005KT CAVOK 13/12 Q1019

TAF TAF LIBR
Valid from the 26 at 00:00 until the 27 at 00:00 UTC


252300Z 2600/2624 VRB06KT 9999 FEW030
BECMG 2610/2612 03013KT



MET'MAP, your aeronautical weather chart ! - Copyright ORBIFLY December 2007 - Disclaimer

ORBIFLY MET'MAP TEAM :

Programming & Development : Alexandra Zaïnal
Concept & original design : Baudouin d'Aumeries
Assistance for programming : Marc-Olivier Méhu
Technical & hardware support : Manuel Goepfert

Contact : metmap@orbifly.com




SOURCES & CREDITS :

   NOAA